Find Starlink 35235

NORAD ID: 65682 Int'l Des: 2025-212 Owner: SPXS Country: US Constellation: starlink operational
LEOCIRCULAR

当前视图

正在加载3D地球...

About Starlink 35235

Starlink 35235 (NORAD 65682) is a starlink constellation satellite (v2 mini) launched Sep 21, 2025 by SPXS of US. It operates in LEO, CIRCULAR orbit with a mass of 575.00 kg.

即将过境

Passes for default location (London). Set your location on the main map for personalized predictions.

高度历史

Loading altitude history...

两行轨道根数

1 65682U 25212G 26263.21632073 .00013840 00000-0 41981-3 0 9994
2 65682 53.1575 157.3541 0001081 93.6202 266.4924 15.34413366 57048
Epoch: Sep 20, 2026 • Age: 24 hours

当前状态

高度 462.7 km
远地点 / 近地点 N/A
速度 7.64 km/s
星下点 17.33°N, 95.12°E
发射日期 Sep 21, 2025
运行时间 0.9 years
类型 internet

技术详情

分类 Payload
质量 575.00 kg
干质量 530.00 kg
长度 0.30 m
跨度 29.00 m
形状 ? Box + pan
制造商 SPXS
平台类型 Starlink V2MO
阶段状态 In Orbit
所有者/国家 SPXS/US

Most Searched